Pasco, WA
on Wednesday, February 20, 2013

Wednesday
Previous Day Next Day
Daily Summary
 ActualAverageRecord
Temperature
Mean Temperature °F 40°F  
Max Temperature 51°F 51°F 74°F (1995)
Min Temperature 21°F 29°F 13°F (2006)
Degree Days
Heating Degree Days 29 25  
Month to date heating degree days 521 538  
Since 1 July heating degree days 3432 3689  
Cooling Degree Days 0 0  
Month to date cooling degree days 0 0  
Year to date cooling degree days 0 0  
Moisture
Dew Point 27°F   
Average Humidity 71    
Maximum Humidity 100    
Minimum Humidity 42    
Precipitation
Precipitation 0.00 in in 0.56 in (1992)
Month to date precipitation T  
Year to date precipitation 0.36  
Snow
Snow 0.00 in in in ()
Snow Depth 0.00 in   
Wind
Wind Speed 3 mph   
Max Wind Speed 14 mph   
Max Gust Speed 17 mph   
Visibility 9 miles   
Events     

Key: T is trace of precipitation, MM is missing value
Source: NWS Daily Summary
Time(PST)TemperatureDew PointHumidity Pressure Visibility Wind DirectionWind SpeedGust SpeedPrecipitationEvents Conditions
12:53 AM 34.0°F 30.0°F 85% 29.97 in 10.0 miles SSW 4.6 mph - N/A   Overcast
1:53 AM 30.9°F 28.9°F 92% 29.99 in 9.0 miles North 3.5 mph - N/A   Mostly Cloudy
2:53 AM 28.0°F 26.1°F 92% 30.00 in 8.0 miles Calm Calm - N/A   Mostly Cloudy
3:53 AM 27.0°F 26.1°F 96% 30.01 in 6.0 miles Calm Calm - N/A   Clear
4:53 AM 24.1°F 21.9°F 91% 30.01 in 7.0 miles NW 4.6 mph - N/A   Clear
5:53 AM 24.1°F 23.0°F 96% 30.04 in 8.0 miles NNW 3.5 mph - N/A   Clear
6:53 AM 21.9°F 19.9°F 92% 30.05 in 10.0 miles North 3.5 mph - N/A   Clear
8:53 AM 33.1°F 28.9°F 85% 30.06 in 9.0 miles Calm Calm - N/A   Clear
9:53 AM 39.9°F 30.0°F 68% 30.06 in 10.0 miles Calm Calm - N/A   Clear
10:53 AM 45.0°F 25.0°F 46% 30.05 in 10.0 miles SSE 6.9 mph - N/A   Clear
11:53 AM 46.9°F 28.0°F 48% 30.03 in 10.0 miles Variable 3.5 mph - N/A   Clear
12:53 PM 48.0°F 30.0°F 50% 30.00 in 10.0 miles Calm Calm - N/A   Clear
1:53 PM 50.0°F 28.9°F 44% 29.98 in 10.0 miles Variable 4.6 mph - N/A   Clear
2:53 PM 48.9°F 28.0°F 44% 29.98 in 10.0 miles SSW 11.5 mph - N/A   Clear
3:53 PM 48.9°F 28.9°F 46% 29.97 in 10.0 miles Variable 3.5 mph - N/A   Scattered Clouds
4:53 PM 46.9°F 28.0°F 48% 29.97 in 10.0 miles Calm Calm - N/A   Clear
5:53 PM 41.0°F 28.0°F 60% 29.98 in 10.0 miles NE 3.5 mph - N/A   Clear
6:53 PM 37.9°F 30.0°F 73% 30.00 in 10.0 miles NNW 4.6 mph - N/A   Clear
7:53 PM 37.0°F 28.9°F 73% 30.01 in 10.0 miles Calm Calm - N/A   Mostly Cloudy
8:53 PM 33.1°F 27.0°F 78% 30.01 in 10.0 miles Calm Calm - N/A   Clear
9:53 PM 28.9°F 26.1°F 89% 30.02 in 10.0 miles Calm Calm - N/A   Clear
10:53 PM 26.1°F 23.0°F 88% 30.02 in 10.0 miles Calm Calm - N/A   Clear
11:53 PM 26.1°F 23.0°F 88% 30.03 in 10.0 miles Calm Calm - N/A   Partly Cloudy
Moon Phase
Feb. 20 Feb. 25 Mar. 04 Mar. 11 Mar. 19
Sunrise:06:50 AM (PST) Moon Rise:12:45 PM (PST)2/20
Sunset:05:30 PM (PST) Moon Set:03:25 AM (PST)2/20

Copyright © 2014 The Weather Underground, Inc.